Location: Seven Kings
(51.5667°N, 0.1000°E)
Time: 11:30:45
(UTC+00:00)

ARGOS - Pass Details

Date: 29 October 2020
Orbit: 820 x 835 km, 98.4° (Epoch: 25 November)

Event Time Altitude Azimuth Distance (km) Brightness Sun altitude
Exits shadow 19:58:51 22° 212° (SSW) 1,751 4.9 -31.6°
Maximum altitude 20:01:43 37° 264° (W) 1,285 4.5 -32.0°
Drops below altitude 10° 20:06:44 10° 331° (NNW) 2,459 6.1 -32.7°
Sets 20:09:18 0° 340° (NNW) 3,397 6.9 -33.1°
